<?xml version="1.0" encoding="UTF-8" standalone="no" ?>
<gpx xmlns="http://www.topografix.com/GPX/1/1" xmlns:xsi="http://www.w3.org/2001/XMLSchema-instance" xsi:schemaLocation="http://www.topografix.com/GPX/1/1 http://www.topografix.com/GPX/1/1/gpx.xsd" version="1.1" creator="VisuGPX - https://www.visugpx.com">
  <metadata>
    <name>Jerome_Calanque</name>
    <desc><![CDATA[Sugiton, Morgiou, Sormiou et retour par col des Escourtines. Le 10/04/2011]]></desc>
  </metadata>
  <trk>
    <name><![CDATA[Jerome_Calanque_1]]></name>
    <trkseg>
      <trkpt lat="43.22968" lon="5.43705">
        <ele>151</ele>
        <time>2011-04-10T07:42:49Z</time>
      </trkpt>
      <trkpt lat="43.22855" lon="5.43721">
        <ele>160</ele>
        <time>2011-04-10T07:42:49Z</time>
      </trkpt>
      <trkpt lat="43.22761" lon="5.43722">
        <ele>164</ele>
        <time>2011-04-10T07:42:49Z</time>
      </trkpt>
      <trkpt lat="43.22669" lon="5.43741">
        <ele>168</ele>
        <time>2011-04-10T07:42:49Z</time>
      </trkpt>
      <trkpt lat="43.22616" lon="5.43645">
        <ele>176</ele>
        <time>2011-04-10T07:42:49Z</time>
      </trkpt>
      <trkpt lat="43.22556" lon="5.43554">
        <ele>182</ele>
        <time>2011-04-10T07:42:49Z</time>
      </trkpt>
      <trkpt lat="43.22555" lon="5.43631">
        <ele>181</ele>
        <time>2011-04-10T07:42:49Z</time>
      </trkpt>
      <trkpt lat="43.22479" lon="5.43689">
        <ele>182</ele>
        <time>2011-04-10T07:42:49Z</time>
      </trkpt>
      <trkpt lat="43.22399" lon="5.43742">
        <ele>183</ele>
        <time>2011-04-10T07:42:49Z</time>
      </trkpt>
      <trkpt lat="43.22322" lon="5.43803">
        <ele>185</ele>
        <time>2011-04-10T07:42:49Z</time>
      </trkpt>
      <trkpt lat="43.22245" lon="5.43879">
        <ele>187</ele>
        <time>2011-04-10T07:42:49Z</time>
      </trkpt>
      <trkpt lat="43.22157" lon="5.43914">
        <ele>187</ele>
        <time>2011-04-10T07:42:49Z</time>
      </trkpt>
      <trkpt lat="43.22102" lon="5.43968">
        <ele>185</ele>
        <time>2011-04-10T07:42:49Z</time>
      </trkpt>
      <trkpt lat="43.22039" lon="5.44045">
        <ele>180</ele>
        <time>2011-04-10T07:42:49Z</time>
      </trkpt>
      <trkpt lat="43.22002" lon="5.44135">
        <ele>181</ele>
        <time>2011-04-10T07:42:49Z</time>
      </trkpt>
      <trkpt lat="43.22003" lon="5.44257">
        <ele>192</ele>
        <time>2011-04-10T07:42:49Z</time>
      </trkpt>
      <trkpt lat="43.21971" lon="5.4437">
        <ele>200</ele>
        <time>2011-04-10T07:42:49Z</time>
      </trkpt>
      <trkpt lat="43.21922" lon="5.44476">
        <ele>206</ele>
        <time>2011-04-10T07:42:49Z</time>
      </trkpt>
      <trkpt lat="43.2191" lon="5.44592">
        <ele>212</ele>
        <time>2011-04-10T07:42:49Z</time>
      </trkpt>
      <trkpt lat="43.21879" lon="5.44707">
        <ele>216</ele>
        <time>2011-04-10T07:42:49Z</time>
      </trkpt>
      <trkpt lat="43.21879" lon="5.44821">
        <ele>218</ele>
        <time>2011-04-10T07:42:49Z</time>
      </trkpt>
      <trkpt lat="43.21808" lon="5.44876">
        <ele>210</ele>
        <time>2011-04-10T07:42:49Z</time>
      </trkpt>
      <trkpt lat="43.21738" lon="5.44923">
        <ele>210</ele>
        <time>2011-04-10T07:42:49Z</time>
      </trkpt>
      <trkpt lat="43.21675" lon="5.45016">
        <ele>211</ele>
        <time>2011-04-10T07:42:49Z</time>
      </trkpt>
      <trkpt lat="43.21716" lon="5.45135">
        <ele>223</ele>
        <time>2011-04-10T07:42:49Z</time>
      </trkpt>
      <trkpt lat="43.21736" lon="5.45264">
        <ele>244</ele>
        <time>2011-04-10T07:42:49Z</time>
      </trkpt>
      <trkpt lat="43.2166" lon="5.45244">
        <ele>221</ele>
        <time>2011-04-10T07:42:49Z</time>
      </trkpt>
      <trkpt lat="43.21586" lon="5.45178">
        <ele>207</ele>
        <time>2011-04-10T07:42:49Z</time>
      </trkpt>
      <trkpt lat="43.21514" lon="5.45109">
        <ele>189</ele>
        <time>2011-04-10T07:42:49Z</time>
      </trkpt>
      <trkpt lat="43.21445" lon="5.45168">
        <ele>188</ele>
        <time>2011-04-10T07:42:49Z</time>
      </trkpt>
      <trkpt lat="43.21412" lon="5.45199">
        <ele>156</ele>
        <time>2011-04-10T07:42:49Z</time>
      </trkpt>
      <trkpt lat="43.21415" lon="5.4528">
        <ele>152</ele>
        <time>2011-04-10T07:42:49Z</time>
      </trkpt>
      <trkpt lat="43.21391" lon="5.45385">
        <ele>145</ele>
        <time>2011-04-10T07:42:49Z</time>
      </trkpt>
      <trkpt lat="43.21357" lon="5.45497">
        <ele>136</ele>
        <time>2011-04-10T07:42:49Z</time>
      </trkpt>
      <trkpt lat="43.213" lon="5.45581">
        <ele>91</ele>
        <time>2011-04-10T07:42:49Z</time>
      </trkpt>
      <trkpt lat="43.21266" lon="5.45623">
        <ele>78</ele>
        <time>2011-04-10T07:42:49Z</time>
      </trkpt>
      <trkpt lat="43.21248" lon="5.45631">
        <ele>39</ele>
        <time>2011-04-10T07:42:49Z</time>
      </trkpt>
      <trkpt lat="43.21224" lon="5.45596">
        <ele>38</ele>
        <time>2011-04-10T07:42:49Z</time>
      </trkpt>
      <trkpt lat="43.21158" lon="5.4562">
        <ele>14</ele>
        <time>2011-04-10T07:42:49Z</time>
      </trkpt>
      <trkpt lat="43.21196" lon="5.45578">
        <ele>26</ele>
        <time>2011-04-10T07:42:49Z</time>
      </trkpt>
      <trkpt lat="43.21217" lon="5.45474">
        <ele>38</ele>
        <time>2011-04-10T07:42:49Z</time>
      </trkpt>
      <trkpt lat="43.21213" lon="5.45378">
        <ele>62</ele>
        <time>2011-04-10T07:42:49Z</time>
      </trkpt>
      <trkpt lat="43.21201" lon="5.4542">
        <ele>38</ele>
        <time>2011-04-10T07:42:49Z</time>
      </trkpt>
      <trkpt lat="43.21222" lon="5.45401">
        <ele>60</ele>
        <time>2011-04-10T07:42:49Z</time>
      </trkpt>
      <trkpt lat="43.21205" lon="5.45397">
        <ele>57</ele>
        <time>2011-04-10T07:42:49Z</time>
      </trkpt>
      <trkpt lat="43.21214" lon="5.45406">
        <ele>58</ele>
        <time>2011-04-10T07:42:49Z</time>
      </trkpt>
      <trkpt lat="43.21213" lon="5.45435">
        <ele>41</ele>
        <time>2011-04-10T07:42:49Z</time>
      </trkpt>
      <trkpt lat="43.212" lon="5.45418">
        <ele>38</ele>
        <time>2011-04-10T07:42:49Z</time>
      </trkpt>
      <trkpt lat="43.21215" lon="5.45425">
        <ele>43</ele>
        <time>2011-04-10T07:42:49Z</time>
      </trkpt>
      <trkpt lat="43.21226" lon="5.45392">
        <ele>62</ele>
        <time>2011-04-10T07:42:49Z</time>
      </trkpt>
      <trkpt lat="43.21204" lon="5.45403">
        <ele>56</ele>
        <time>2011-04-10T07:42:49Z</time>
      </trkpt>
      <trkpt lat="43.212" lon="5.45422">
        <ele>38</ele>
        <time>2011-04-10T07:42:49Z</time>
      </trkpt>
      <trkpt lat="43.21195" lon="5.45426">
        <ele>36</ele>
        <time>2011-04-10T07:42:49Z</time>
      </trkpt>
      <trkpt lat="43.21182" lon="5.4543">
        <ele>33</ele>
        <time>2011-04-10T07:42:49Z</time>
      </trkpt>
      <trkpt lat="43.21206" lon="5.45394">
        <ele>58</ele>
        <time>2011-04-10T07:42:49Z</time>
      </trkpt>
      <trkpt lat="43.21165" lon="5.45369">
        <ele>54</ele>
        <time>2011-04-10T07:42:49Z</time>
      </trkpt>
      <trkpt lat="43.21103" lon="5.45361">
        <ele>52</ele>
        <time>2011-04-10T07:42:49Z</time>
      </trkpt>
      <trkpt lat="43.21017" lon="5.45349">
        <ele>34</ele>
        <time>2011-04-10T07:42:49Z</time>
      </trkpt>
      <trkpt lat="43.21012" lon="5.45284">
        <ele>40</ele>
        <time>2011-04-10T07:42:49Z</time>
      </trkpt>
      <trkpt lat="43.21051" lon="5.45191">
        <ele>43</ele>
        <time>2011-04-10T07:42:49Z</time>
      </trkpt>
      <trkpt lat="43.21095" lon="5.45094">
        <ele>56</ele>
        <time>2011-04-10T07:42:49Z</time>
      </trkpt>
      <trkpt lat="43.211" lon="5.44995">
        <ele>47</ele>
        <time>2011-04-10T07:42:49Z</time>
      </trkpt>
      <trkpt lat="43.21085" lon="5.4489">
        <ele>46</ele>
        <time>2011-04-10T07:42:49Z</time>
      </trkpt>
      <trkpt lat="43.2113" lon="5.44795">
        <ele>41</ele>
        <time>2011-04-10T07:42:49Z</time>
      </trkpt>
      <trkpt lat="43.21196" lon="5.44742">
        <ele>58</ele>
        <time>2011-04-10T07:42:49Z</time>
      </trkpt>
      <trkpt lat="43.21242" lon="5.44646">
        <ele>47</ele>
        <time>2011-04-10T07:42:49Z</time>
      </trkpt>
      <trkpt lat="43.21292" lon="5.44575">
        <ele>47</ele>
        <time>2011-04-10T07:42:49Z</time>
      </trkpt>
      <trkpt lat="43.21285" lon="5.44492">
        <ele>24</ele>
        <time>2011-04-10T07:42:49Z</time>
      </trkpt>
      <trkpt lat="43.2123" lon="5.44527">
        <ele>11</ele>
        <time>2011-04-10T07:42:49Z</time>
      </trkpt>
      <trkpt lat="43.21226" lon="5.44517">
        <ele>10</ele>
        <time>2011-04-10T07:42:49Z</time>
      </trkpt>
      <trkpt lat="43.21233" lon="5.44532">
        <ele>11</ele>
        <time>2011-04-10T07:42:49Z</time>
      </trkpt>
      <trkpt lat="43.21269" lon="5.44511">
        <ele>28</ele>
        <time>2011-04-10T07:42:49Z</time>
      </trkpt>
      <trkpt lat="43.21295" lon="5.44409">
        <ele>17</ele>
        <time>2011-04-10T07:42:49Z</time>
      </trkpt>
      <trkpt lat="43.21316" lon="5.44298">
        <ele>15</ele>
        <time>2011-04-10T07:42:49Z</time>
      </trkpt>
      <trkpt lat="43.21324" lon="5.44195">
        <ele>18</ele>
        <time>2011-04-10T07:42:49Z</time>
      </trkpt>
      <trkpt lat="43.2138" lon="5.44122">
        <ele>21</ele>
        <time>2011-04-10T07:42:49Z</time>
      </trkpt>
      <trkpt lat="43.2142" lon="5.44007">
        <ele>23</ele>
        <time>2011-04-10T07:42:49Z</time>
      </trkpt>
      <trkpt lat="43.21387" lon="5.44096">
        <ele>20</ele>
        <time>2011-04-10T07:42:49Z</time>
      </trkpt>
      <trkpt lat="43.21326" lon="5.44184">
        <ele>16</ele>
        <time>2011-04-10T07:42:49Z</time>
      </trkpt>
      <trkpt lat="43.2129" lon="5.44295">
        <ele>16</ele>
        <time>2011-04-10T07:42:49Z</time>
      </trkpt>
      <trkpt lat="43.21232" lon="5.44382">
        <ele>18</ele>
        <time>2011-04-10T07:42:49Z</time>
      </trkpt>
      <trkpt lat="43.21165" lon="5.44415">
        <ele>30</ele>
        <time>2011-04-10T07:42:49Z</time>
      </trkpt>
      <trkpt lat="43.21123" lon="5.44481">
        <ele>31</ele>
        <time>2011-04-10T07:42:49Z</time>
      </trkpt>
      <trkpt lat="43.21056" lon="5.44556">
        <ele>33</ele>
        <time>2011-04-10T07:42:49Z</time>
      </trkpt>
      <trkpt lat="43.20978" lon="5.44603">
        <ele>26</ele>
        <time>2011-04-10T07:42:49Z</time>
      </trkpt>
      <trkpt lat="43.20895" lon="5.44628">
        <ele>31</ele>
        <time>2011-04-10T07:42:49Z</time>
      </trkpt>
      <trkpt lat="43.20817" lon="5.4462">
        <ele>34</ele>
        <time>2011-04-10T07:42:49Z</time>
      </trkpt>
      <trkpt lat="43.20741" lon="5.44606">
        <ele>52</ele>
        <time>2011-04-10T07:42:49Z</time>
      </trkpt>
      <trkpt lat="43.20665" lon="5.44605">
        <ele>76</ele>
        <time>2011-04-10T07:42:49Z</time>
      </trkpt>
      <trkpt lat="43.20644" lon="5.44535">
        <ele>66</ele>
        <time>2011-04-10T07:42:49Z</time>
      </trkpt>
      <trkpt lat="43.20676" lon="5.44452">
        <ele>107</ele>
        <time>2011-04-10T07:42:49Z</time>
      </trkpt>
      <trkpt lat="43.20722" lon="5.44394">
        <ele>162</ele>
        <time>2011-04-10T07:42:49Z</time>
      </trkpt>
      <trkpt lat="43.20771" lon="5.44359">
        <ele>186</ele>
        <time>2011-04-10T07:42:49Z</time>
      </trkpt>
      <trkpt lat="43.2084" lon="5.44333">
        <ele>196</ele>
        <time>2011-04-10T07:42:49Z</time>
      </trkpt>
      <trkpt lat="43.20896" lon="5.44263">
        <ele>190</ele>
        <time>2011-04-10T07:42:49Z</time>
      </trkpt>
      <trkpt lat="43.20918" lon="5.44136">
        <ele>194</ele>
        <time>2011-04-10T07:42:49Z</time>
      </trkpt>
      <trkpt lat="43.20983" lon="5.44061">
        <ele>195</ele>
        <time>2011-04-10T07:42:49Z</time>
      </trkpt>
      <trkpt lat="43.21036" lon="5.43972">
        <ele>199</ele>
        <time>2011-04-10T07:42:49Z</time>
      </trkpt>
      <trkpt lat="43.21062" lon="5.43856">
        <ele>202</ele>
        <time>2011-04-10T07:42:49Z</time>
      </trkpt>
      <trkpt lat="43.2112" lon="5.4376">
        <ele>212</ele>
        <time>2011-04-10T07:42:49Z</time>
      </trkpt>
      <trkpt lat="43.21175" lon="5.43717">
        <ele>213</ele>
        <time>2011-04-10T07:42:49Z</time>
      </trkpt>
      <trkpt lat="43.2118" lon="5.436">
        <ele>217</ele>
        <time>2011-04-10T07:42:49Z</time>
      </trkpt>
      <trkpt lat="43.21238" lon="5.43513">
        <ele>219</ele>
        <time>2011-04-10T07:42:49Z</time>
      </trkpt>
      <trkpt lat="43.21283" lon="5.43415">
        <ele>214</ele>
        <time>2011-04-10T07:42:49Z</time>
      </trkpt>
      <trkpt lat="43.21272" lon="5.43299">
        <ele>208</ele>
        <time>2011-04-10T07:42:49Z</time>
      </trkpt>
      <trkpt lat="43.21234" lon="5.43192">
        <ele>200</ele>
        <time>2011-04-10T07:42:49Z</time>
      </trkpt>
      <trkpt lat="43.21242" lon="5.4308">
        <ele>195</ele>
        <time>2011-04-10T07:42:49Z</time>
      </trkpt>
      <trkpt lat="43.21305" lon="5.43013">
        <ele>203</ele>
        <time>2011-04-10T07:42:49Z</time>
      </trkpt>
      <trkpt lat="43.21359" lon="5.42927">
        <ele>195</ele>
        <time>2011-04-10T07:42:49Z</time>
      </trkpt>
      <trkpt lat="43.21338" lon="5.42826">
        <ele>185</ele>
        <time>2011-04-10T07:42:49Z</time>
      </trkpt>
      <trkpt lat="43.21277" lon="5.42758">
        <ele>145</ele>
        <time>2011-04-10T07:42:49Z</time>
      </trkpt>
      <trkpt lat="43.21244" lon="5.42702">
        <ele>103</ele>
        <time>2011-04-10T07:42:49Z</time>
      </trkpt>
      <trkpt lat="43.21206" lon="5.42641">
        <ele>80</ele>
        <time>2011-04-10T07:42:49Z</time>
      </trkpt>
      <trkpt lat="43.21141" lon="5.4259">
        <ele>59</ele>
        <time>2011-04-10T07:42:49Z</time>
      </trkpt>
      <trkpt lat="43.21082" lon="5.42512">
        <ele>29</ele>
        <time>2011-04-10T07:42:49Z</time>
      </trkpt>
      <trkpt lat="43.21069" lon="5.42436">
        <ele>15</ele>
        <time>2011-04-10T07:42:49Z</time>
      </trkpt>
      <trkpt lat="43.21137" lon="5.42387">
        <ele>14</ele>
        <time>2011-04-10T07:42:49Z</time>
      </trkpt>
      <trkpt lat="43.21118" lon="5.42355">
        <ele>12</ele>
        <time>2011-04-10T07:42:49Z</time>
      </trkpt>
      <trkpt lat="43.21114" lon="5.42345">
        <ele>12</ele>
        <time>2011-04-10T07:42:49Z</time>
      </trkpt>
      <trkpt lat="43.21199" lon="5.42324">
        <ele>21</ele>
        <time>2011-04-10T07:42:49Z</time>
      </trkpt>
      <trkpt lat="43.21268" lon="5.42252">
        <ele>35</ele>
        <time>2011-04-10T07:42:49Z</time>
      </trkpt>
      <trkpt lat="43.21335" lon="5.42167">
        <ele>46</ele>
        <time>2011-04-10T07:42:49Z</time>
      </trkpt>
      <trkpt lat="43.21421" lon="5.4212">
        <ele>92</ele>
        <time>2011-04-10T07:42:49Z</time>
      </trkpt>
      <trkpt lat="43.21492" lon="5.42168">
        <ele>103</ele>
        <time>2011-04-10T07:42:49Z</time>
      </trkpt>
      <trkpt lat="43.21562" lon="5.42168">
        <ele>123</ele>
        <time>2011-04-10T07:42:49Z</time>
      </trkpt>
      <trkpt lat="43.2162" lon="5.42248">
        <ele>145</ele>
        <time>2011-04-10T07:42:49Z</time>
      </trkpt>
      <trkpt lat="43.21675" lon="5.42095">
        <ele>173</ele>
        <time>2011-04-10T07:42:49Z</time>
      </trkpt>
      <trkpt lat="43.21677" lon="5.42069">
        <ele>175</ele>
        <time>2011-04-10T07:42:49Z</time>
      </trkpt>
      <trkpt lat="43.21729" lon="5.4213">
        <ele>180</ele>
        <time>2011-04-10T07:42:49Z</time>
      </trkpt>
      <trkpt lat="43.21725" lon="5.42249">
        <ele>183</ele>
        <time>2011-04-10T07:42:49Z</time>
      </trkpt>
      <trkpt lat="43.21714" lon="5.42358">
        <ele>201</ele>
        <time>2011-04-10T07:42:49Z</time>
      </trkpt>
      <trkpt lat="43.21709" lon="5.42471">
        <ele>216</ele>
        <time>2011-04-10T07:42:49Z</time>
      </trkpt>
      <trkpt lat="43.21669" lon="5.42569">
        <ele>230</ele>
        <time>2011-04-10T07:42:49Z</time>
      </trkpt>
      <trkpt lat="43.21702" lon="5.42548">
        <ele>223</ele>
        <time>2011-04-10T07:42:49Z</time>
      </trkpt>
      <trkpt lat="43.2178" lon="5.42495">
        <ele>223</ele>
        <time>2011-04-10T07:42:49Z</time>
      </trkpt>
      <trkpt lat="43.2185" lon="5.4244">
        <ele>215</ele>
        <time>2011-04-10T07:42:49Z</time>
      </trkpt>
      <trkpt lat="43.21897" lon="5.42333">
        <ele>203</ele>
        <time>2011-04-10T07:42:49Z</time>
      </trkpt>
      <trkpt lat="43.21961" lon="5.42253">
        <ele>208</ele>
        <time>2011-04-10T07:42:49Z</time>
      </trkpt>
      <trkpt lat="43.22045" lon="5.42213">
        <ele>210</ele>
        <time>2011-04-10T07:42:49Z</time>
      </trkpt>
      <trkpt lat="43.22128" lon="5.42176">
        <ele>209</ele>
        <time>2011-04-10T07:42:49Z</time>
      </trkpt>
      <trkpt lat="43.22204" lon="5.42225">
        <ele>200</ele>
        <time>2011-04-10T07:42:49Z</time>
      </trkpt>
      <trkpt lat="43.22269" lon="5.42311">
        <ele>191</ele>
        <time>2011-04-10T07:42:49Z</time>
      </trkpt>
      <trkpt lat="43.2233" lon="5.4239">
        <ele>195</ele>
        <time>2011-04-10T07:42:49Z</time>
      </trkpt>
      <trkpt lat="43.22409" lon="5.42416">
        <ele>217</ele>
        <time>2011-04-10T07:42:49Z</time>
      </trkpt>
      <trkpt lat="43.2248" lon="5.42475">
        <ele>243</ele>
        <time>2011-04-10T07:42:49Z</time>
      </trkpt>
      <trkpt lat="43.22507" lon="5.42535">
        <ele>260</ele>
        <time>2011-04-10T07:42:49Z</time>
      </trkpt>
      <trkpt lat="43.22491" lon="5.42659">
        <ele>265</ele>
        <time>2011-04-10T07:42:49Z</time>
      </trkpt>
      <trkpt lat="43.22429" lon="5.42741">
        <ele>255</ele>
        <time>2011-04-10T07:42:49Z</time>
      </trkpt>
      <trkpt lat="43.22349" lon="5.42796">
        <ele>238</ele>
        <time>2011-04-10T07:42:49Z</time>
      </trkpt>
      <trkpt lat="43.22309" lon="5.42904">
        <ele>236</ele>
        <time>2011-04-10T07:42:49Z</time>
      </trkpt>
      <trkpt lat="43.22277" lon="5.43013">
        <ele>242</ele>
        <time>2011-04-10T07:42:49Z</time>
      </trkpt>
      <trkpt lat="43.22232" lon="5.43103">
        <ele>242</ele>
        <time>2011-04-10T07:42:49Z</time>
      </trkpt>
      <trkpt lat="43.22254" lon="5.43218">
        <ele>257</ele>
        <time>2011-04-10T07:42:49Z</time>
      </trkpt>
      <trkpt lat="43.22235" lon="5.43242">
        <ele>260</ele>
        <time>2011-04-10T07:42:49Z</time>
      </trkpt>
      <trkpt lat="43.22201" lon="5.43356">
        <ele>261</ele>
        <time>2011-04-10T07:42:49Z</time>
      </trkpt>
      <trkpt lat="43.22131" lon="5.43429">
        <ele>251</ele>
        <time>2011-04-10T07:42:49Z</time>
      </trkpt>
      <trkpt lat="43.22066" lon="5.43493">
        <ele>227</ele>
        <time>2011-04-10T07:42:49Z</time>
      </trkpt>
      <trkpt lat="43.22021" lon="5.43597">
        <ele>215</ele>
        <time>2011-04-10T07:42:49Z</time>
      </trkpt>
      <trkpt lat="43.21987" lon="5.43705">
        <ele>204</ele>
        <time>2011-04-10T07:42:49Z</time>
      </trkpt>
      <trkpt lat="43.21936" lon="5.43802">
        <ele>194</ele>
        <time>2011-04-10T07:42:49Z</time>
      </trkpt>
      <trkpt lat="43.21981" lon="5.43908">
        <ele>190</ele>
        <time>2011-04-10T07:42:49Z</time>
      </trkpt>
      <trkpt lat="43.22007" lon="5.4403">
        <ele>179</ele>
        <time>2011-04-10T07:42:49Z</time>
      </trkpt>
      <trkpt lat="43.22072" lon="5.44029">
        <ele>181</ele>
        <time>2011-04-10T07:42:49Z</time>
      </trkpt>
      <trkpt lat="43.22119" lon="5.43932">
        <ele>186</ele>
        <time>2011-04-10T07:42:49Z</time>
      </trkpt>
      <trkpt lat="43.22178" lon="5.43918">
        <ele>184</ele>
        <time>2011-04-10T07:42:49Z</time>
      </trkpt>
      <trkpt lat="43.22256" lon="5.4386">
        <ele>185</ele>
        <time>2011-04-10T07:42:49Z</time>
      </trkpt>
      <trkpt lat="43.22326" lon="5.438">
        <ele>185</ele>
        <time>2011-04-10T07:42:49Z</time>
      </trkpt>
      <trkpt lat="43.22399" lon="5.43741">
        <ele>183</ele>
        <time>2011-04-10T07:42:49Z</time>
      </trkpt>
      <trkpt lat="43.22473" lon="5.43688">
        <ele>182</ele>
        <time>2011-04-10T07:42:49Z</time>
      </trkpt>
      <trkpt lat="43.22552" lon="5.43641">
        <ele>181</ele>
        <time>2011-04-10T07:42:49Z</time>
      </trkpt>
      <trkpt lat="43.22549" lon="5.43537">
        <ele>183</ele>
        <time>2011-04-10T07:42:49Z</time>
      </trkpt>
      <trkpt lat="43.22605" lon="5.43632">
        <ele>177</ele>
        <time>2011-04-10T07:42:49Z</time>
      </trkpt>
      <trkpt lat="43.22655" lon="5.4373">
        <ele>171</ele>
        <time>2011-04-10T07:42:49Z</time>
      </trkpt>
      <trkpt lat="43.22746" lon="5.43722">
        <ele>166</ele>
        <time>2011-04-10T07:42:49Z</time>
      </trkpt>
      <trkpt lat="43.22833" lon="5.43723">
        <ele>163</ele>
        <time>2011-04-10T07:42:49Z</time>
      </trkpt>
      <trkpt lat="43.22918" lon="5.43716">
        <ele>153</ele>
        <time>2011-04-10T07:42:49Z</time>
      </trkpt>
      <trkpt lat="43.22937" lon="5.43711">
        <ele>153</ele>
        <time>2011-04-10T07:42:49Z</time>
      </trkpt>
      <trkpt lat="43.22939" lon="5.4371">
        <ele>153</ele>
        <time>2011-04-10T07:42:49Z</time>
      </trkpt>
      <trkpt lat="43.22941" lon="5.4371">
        <ele>153</ele>
        <time>2011-04-10T07:42:49Z</time>
      </trkpt>
      <trkpt lat="43.22943" lon="5.4371">
        <ele>152</ele>
        <time>2011-04-10T07:42:49Z</time>
      </trkpt>
      <trkpt lat="43.22945" lon="5.4371">
        <ele>152</ele>
        <time>2011-04-10T07:42:49Z</time>
      </trkpt>
      <trkpt lat="43.22947" lon="5.43709">
        <ele>152</ele>
        <time>2011-04-10T07:42:49Z</time>
      </trkpt>
      <trkpt lat="43.22949" lon="5.43709">
        <ele>152</ele>
        <time>2011-04-10T07:42:49Z</time>
      </trkpt>
      <trkpt lat="43.22951" lon="5.43709">
        <ele>152</ele>
        <time>2011-04-10T07:42:49Z</time>
      </trkpt>
      <trkpt lat="43.22953" lon="5.43708">
        <ele>152</ele>
        <time>2011-04-10T07:42:49Z</time>
      </trkpt>
      <trkpt lat="43.22955" lon="5.43708">
        <ele>152</ele>
        <time>2011-04-10T07:42:49Z</time>
      </trkpt>
      <trkpt lat="43.22957" lon="5.43708">
        <ele>152</ele>
        <time>2011-04-10T07:42:49Z</time>
      </trkpt>
      <trkpt lat="43.22959" lon="5.43708">
        <ele>152</ele>
        <time>2011-04-10T07:42:49Z</time>
      </trkpt>
      <trkpt lat="43.22961" lon="5.4371">
        <ele>152</ele>
        <time>2011-04-10T07:42:49Z</time>
      </trkpt>
      <trkpt lat="43.22963" lon="5.43711">
        <ele>151</ele>
        <time>2011-04-10T07:42:49Z</time>
      </trkpt>
      <trkpt lat="43.22965" lon="5.43711">
        <ele>151</ele>
        <time>2011-04-10T07:42:49Z</time>
      </trkpt>
      <trkpt lat="43.22967" lon="5.43712">
        <ele>151</ele>
        <time>2011-04-10T07:42:49Z</time>
      </trkpt>
      <trkpt lat="43.22969" lon="5.43711">
        <ele>151</ele>
        <time>2011-04-10T07:42:49Z</time>
      </trkpt>
      <trkpt lat="43.22969" lon="5.4371">
        <ele>151</ele>
        <time>2011-04-10T07:42:49Z</time>
      </trkpt>
      <trkpt lat="43.2297" lon="5.43713">
        <ele>151</ele>
        <time>2011-04-10T07:42:49Z</time>
      </trkpt>
      <trkpt lat="43.22972" lon="5.43711">
        <ele>151</ele>
        <time>2011-04-10T07:42:49Z</time>
      </trkpt>
      <trkpt lat="43.22973" lon="5.43709">
        <ele>151</ele>
        <time>2011-04-10T07:42:49Z</time>
      </trkpt>
      <trkpt lat="43.22974" lon="5.43707">
        <ele>151</ele>
        <time>2011-04-10T07:42:49Z</time>
      </trkpt>
      <trkpt lat="43.22972" lon="5.43706">
        <ele>151</ele>
        <time>2011-04-10T07:42:49Z</time>
      </trkpt>
    </trkseg>
  </trk>
</gpx>